User: anonymous   Login
Location: Limerick
(52.6800°N, 8.6400°W)
Time: 12:18:22
(UTC+01:00)
Language:

Sapphire - Orbit

View from above orbital plane
View from above orbital plane
View from above satellite
View from above satellite

Ground track
Ground track

The orbit data is extracted from the following two-line orbital elements,

1 26932U 01043D   17290.59150737 -.00000017  00000-0  25180-4 0  9995
2 26932  67.0545 137.8817 0006987 246.8477 113.1888 14.30261688837876
Epoch (UTC): 17 October 2017 14:11:46
Eccentricity: 0.0006987
inclination: 67.0545°
perigee height: 786 km
apogee height: 796 km
right ascension of ascending node: 137.8817°
argument of perigee: 246.8477°
revolutions per day: 14.30261688
mean anomaly at epoch: 113.1888°
orbit number at epoch: 83787

The dashed part of the orbit path shows where the satellite is in the earth's shadow,  

DLR